GEFSCGP_prec_meanprecacc_210.txt.gz
Total_Precipitation_Accumulation
0.01 0.02 0.02 0.02 0.02 0.03 0.06 0.13 0.17 0.21 0.27 0.29 0.38 0.47 0.77 0.98 1.07 1.19 1.33 1.54 1.74 1.92 2.00 2.17 2.47 2.68 2.79 2.93 3.17 3.46 3.88 4.22 4.29 4.10 4.00 3.90 3.55 3.27 2.94 2.63 2.55 2.64 2.56 2.64
0.02 0.03 0.02 0.02 0.02 0.04 0.07 0.14 0.19 0.24 0.29 0.29 0.43 0.54 0.78 1.16 1.29 1.25 1.28 1.32 1.40 1.79 2.00 2.22 2.48 2.59 2.56 2.76 3.05 3.46 3.88 4.20 4.10 4.16 4.32 4.22 3.97 3.35 2.99 2.81 2.68 2.62 2.59 2.59
0.03 0.03 0.02 0.03 0.04 0.06 0.09 0.13 0.17 0.24 0.35 0.32 0.42 0.77 0.97 1.26 1.39 1.27 1.24 1.25 1.20 1.37 1.64 1.80 1.96 2.13 2.39 2.81 3.21 3.46 3.73 3.88 3.92 4.07 4.18 3.90 3.68 3.18 2.99 2.99 2.83 2.69 2.73 2.73
0.02 0.03 0.03 0.05 0.06 0.07 0.11 0.10 0.11 0.18 0.31 0.44 0.53 1.07 1.36 1.56 1.43 1.18 1.21 1.27 1.37 1.46 1.49 1.58 1.70 2.01 2.37 2.75 3.25 3.66 3.67 3.69 3.62 3.75 3.83 3.63 3.28 2.99 2.86 2.86 2.64 2.53 2.48 2.50
0.06 0.04 0.03 0.04 0.06 0.06 0.08 0.08 0.09 0.16 0.25 0.41 0.58 0.97 1.41 1.49 1.38 1.14 1.05 1.23 1.45 1.40 1.38 1.48 1.57 1.83 2.07 2.46 2.85 3.24 3.52 3.58 3.44 3.40 3.41 3.48 3.25 2.94 2.73 2.63 2.50 2.44 2.43 2.27
0.08 0.07 0.06 0.05 0.06 0.06 0.07 0.09 0.14 0.24 0.41 0.72 0.57 0.71 1.14 1.36 1.24 1.02 1.01 1.15 1.29 1.45 1.45 1.52 1.74 1.91 2.03 2.30 2.62 2.85 3.08 3.12 3.06 2.97 2.97 3.03 3.00 2.92 2.65 2.44 2.41 2.41 2.32 2.15
0.17 0.17 0.12 0.09 0.08 0.07 0.08 0.18 0.50 0.83 1.11 0.98 0.62 0.73 1.10 1.04 0.89 0.79 0.86 1.10 1.33 1.56 1.55 1.64 1.81 1.92 1.99 2.11 2.26 2.37 2.48 2.53 2.46 2.45 2.40 2.40 2.44 2.48 2.32 2.22 2.28 2.28 2.19 2.06
0.25 0.24 0.17 0.15 0.12 0.11 0.11 0.21 0.57 0.76 0.89 0.86 0.81 1.04 1.10 0.87 0.74 0.74 0.80 0.97 1.23 1.40 1.43 1.54 1.62 1.54 1.52 1.59 1.70 1.82 1.89 1.92 1.88 1.94 2.01 2.03 2.16 2.13 2.05 2.14 2.11 2.12 2.08 2.04
0.14 0.15 0.15 0.15 0.16 0.15 0.20 0.26 0.27 0.44 0.54 0.88 1.08 1.20 1.09 0.79 0.91 0.89 0.94 1.01 1.06 1.12 1.15 1.14 1.15 1.19 1.28 1.34 1.38 1.44 1.55 1.60 1.53 1.56 1.69 1.77 1.80 1.84 1.86 1.94 1.93 1.83 1.81 1.69
0.08 0.11 0.13 0.11 0.12 0.15 0.21 0.34 0.46 0.67 0.87 1.02 1.10 1.38 1.52 1.34 1.26 1.14 1.21 1.42 1.24 0.98 0.97 0.98 0.93 0.96 0.99 1.03 1.17 1.33 1.44 1.57 1.57 1.49 1.50 1.45 1.51 1.55 1.70 1.77 1.70 1.69 1.70 1.63
0.08 0.11 0.14 0.15 0.15 0.20 0.33 0.41 0.51 0.65 0.74 0.96 1.20 1.38 1.19 1.30 1.26 1.22 1.23 1.27 1.09 0.78 0.67 0.73 0.73 0.73 0.78 0.88 1.02 1.15 1.40 1.56 1.47 1.31 1.31 1.36 1.34 1.41 1.51 1.56 1.50 1.53 1.58 1.62
0.10 0.12 0.16 0.19 0.19 0.19 0.28 0.41 0.52 0.69 0.77 0.84 1.03 1.16 0.77 0.90 0.90 0.91 0.99 0.88 0.73 0.61 0.52 0.63 0.64 0.59 0.65 0.71 0.81 0.96 1.14 1.28 1.25 1.21 1.23 1.33 1.42 1.40 1.34 1.32 1.30 1.31 1.34 1.33
0.13 0.17 0.27 0.46 0.43 0.29 0.26 0.29 0.36 0.45 0.58 0.66 0.92 1.11 0.72 0.68 0.74 0.75 0.76 0.75 0.59 0.64 0.61 0.60 0.64 0.56 0.54 0.58 0.71 0.84 0.91 1.00 1.11 1.13 1.18 1.28 1.28 1.24 1.25 1.33 1.34 1.29 1.27 1.26
0.14 0.15 0.23 0.48 0.56 0.44 0.34 0.33 0.34 0.38 0.51 0.55 0.61 0.86 0.81 0.75 0.75 0.78 0.71 0.59 0.51 0.54 0.65 0.61 0.57 0.53 0.48 0.48 0.54 0.63 0.73 0.83 0.91 1.00 1.15 1.32 1.36 1.37 1.41 1.42 1.41 1.35 1.27 1.29
0.13 0.14 0.15 0.21 0.30 0.32 0.31 0.30 0.33 0.35 0.39 0.49 0.53 0.66 0.75 0.69 0.75 0.83 0.72 0.59 0.59 0.52 0.53 0.52 0.50 0.44 0.43 0.44 0.46 0.53 0.68 0.79 0.90 1.04 1.19 1.32 1.36 1.37 1.37 1.33 1.36 1.35 1.26 1.23
0.17 0.18 0.19 0.27 0.31 0.34 0.34 0.34 0.30 0.28 0.25 0.28 0.40 0.60 0.61 0.59 0.64 0.70 0.68 0.67 0.66 0.65 0.49 0.42 0.44 0.42 0.40 0.38 0.41 0.44 0.59 0.75 0.87 1.00 1.12 1.16 1.22 1.29 1.24 1.19 1.18 1.18 1.20 1.21
0.23 0.26 0.30 0.36 0.41 0.48 0.52 0.41 0.40 0.39 0.34 0.36 0.56 0.69 0.57 0.56 0.57 0.58 0.55 0.56 0.59 0.59 0.58 0.52 0.50 0.47 0.41 0.39 0.43 0.46 0.51 0.66 0.83 0.95 0.99 1.06 1.18 1.23 1.18 1.09 1.11 1.14 1.16 1.17
0.28 0.34 0.36 0.39 0.55 0.76 0.58 0.33 0.30 0.31 0.34 0.33 0.42 0.48 0.47 0.49 0.49 0.52 0.56 0.52 0.50 0.41 0.43 0.51 0.54 0.57 0.58 0.54 0.55 0.58 0.59 0.65 0.79 0.95 1.04 1.09 1.19 1.23 1.22 1.18 1.13 1.12 1.10 1.10
0.25 0.38 0.45 0.49 0.60 0.63 0.51 0.36 0.36 0.40 0.43 0.31 0.35 0.40 0.41 0.47 0.51 0.59 0.48 0.38 0.48 0.41 0.41 0.43 0.47 0.56 0.72 0.77 0.73 0.75 0.78 0.74 0.78 0.92 1.05 1.16 1.29 1.30 1.28 1.27 1.22 1.20 1.17 1.13
0.28 0.36 0.49 0.50 0.70 0.78 0.60 0.41 0.44 0.55 0.80 0.51 0.45 0.50 0.50 0.47 0.68 0.75 0.46 0.34 0.54 0.48 0.43 0.41 0.44 0.53 0.66 0.72 0.68 0.71 0.78 0.85 0.88 0.97 1.07 1.17 1.27 1.36 1.33 1.36 1.38 1.32 1.29 1.22
0.54 0.56 0.56 0.56 0.73 0.80 0.55 0.43 0.51 0.90 1.08 0.63 0.55 0.55 0.59 0.60 0.60 0.53 0.41 0.41 0.53 0.47 0.44 0.42 0.46 0.61 0.67 0.66 0.69 0.78 0.80 0.87 0.93 1.03 1.12 1.24 1.36 1.40 1.39 1.45 1.48 1.44 1.38 1.39
0.77 0.75 0.71 0.76 0.97 1.01 0.59 0.54 0.75 0.85 0.63 0.59 0.57 0.53 0.55 0.55 0.48 0.40 0.36 0.37 0.41 0.46 0.47 0.54 0.64 0.74 0.74 0.77 0.88 0.95 0.98 0.95 0.99 1.11 1.18 1.32 1.46 1.32 1.30 1.51 1.58 1.56 1.54 1.54
0.83 0.84 0.87 0.92 1.00 0.84 0.69 0.73 0.81 0.67 0.64 0.57 0.51 0.50 0.48 0.50 0.46 0.40 0.38 0.35 0.37 0.45 0.48 0.59 0.72 0.79 0.81 0.87 1.03 1.23 1.21 1.15 1.12 1.21 1.30 1.34 1.39 1.49 1.57 1.60 1.65 1.63 1.58 1.56
0.83 0.74 0.90 1.02 0.99 0.88 0.78 0.76 0.76 0.68 0.61 0.50 0.43 0.45 0.47 0.50 0.53 0.47 0.44 0.43 0.41 0.44 0.48 0.54 0.69 0.76 0.89 0.99 1.13 1.36 1.39 1.36 1.36 1.41 1.47 1.48 1.48 1.52 1.65 1.80 1.78 1.69 1.57 1.60
0.91 0.88 1.00 1.15 1.10 0.98 0.83 0.72 0.67 0.60 0.54 0.49 0.44 0.44 0.48 0.52 0.55 0.52 0.56 0.54 0.47 0.50 0.51 0.57 0.74 0.88 0.95 0.99 1.08 1.24 1.40 1.54 1.58 1.58 1.57 1.59 1.61 1.67 1.71 1.71 1.67 1.62 1.55 1.48
0.80 0.95 1.17 1.26 1.04 0.93 0.86 0.73 0.70 0.59 0.53 0.52 0.51 0.47 0.50 0.51 0.49 0.50 0.55 0.59 0.53 0.58 0.67 0.66 0.71 0.85 0.93 1.00 1.11 1.25 1.46 1.72 1.90 1.85 1.72 1.70 1.71 1.75 1.73 1.71 1.53 1.33 1.26 1.20

GEFSCGP_prec_meanprecacc_216.txt.gz
Total_Precipitation_Accumulation
0.01 0.02 0.02 0.02 0.02 0.03 0.06 0.14 0.20 0.22 0.27 0.29 0.38 0.48 0.78 0.99 1.07 1.20 1.34 1.54 1.76 1.94 2.01 2.17 2.47 2.69 2.80 2.95 3.18 3.46 3.88 4.23 4.31 4.12 4.03 3.94 3.62 3.32 2.99 2.68 2.59 2.69 2.61 2.71
0.02 0.03 0.02 0.02 0.02 0.04 0.07 0.14 0.21 0.25 0.29 0.29 0.43 0.54 0.79 1.18 1.29 1.25 1.30 1.33 1.41 1.84 2.02 2.22 2.48 2.60 2.57 2.77 3.06 3.47 3.89 4.22 4.12 4.19 4.37 4.30 4.06 3.41 3.04 2.85 2.74 2.66 2.63 2.64
0.03 0.03 0.02 0.03 0.04 0.06 0.09 0.13 0.18 0.24 0.35 0.32 0.42 0.77 0.98 1.26 1.39 1.28 1.24 1.25 1.20 1.37 1.65 1.80 1.96 2.13 2.39 2.81 3.22 3.48 3.75 3.91 3.95 4.11 4.24 3.97 3.75 3.25 3.06 3.07 2.89 2.74 2.77 2.77
0.02 0.03 0.03 0.05 0.06 0.07 0.12 0.10 0.11 0.18 0.31 0.44 0.53 1.08 1.37 1.56 1.44 1.18 1.21 1.27 1.37 1.46 1.49 1.58 1.70 2.01 2.37 2.75 3.25 3.67 3.69 3.72 3.66 3.80 3.88 3.68 3.33 3.06 2.96 2.96 2.72 2.62 2.56 2.56
0.06 0.04 0.03 0.04 0.06 0.06 0.08 0.08 0.09 0.16 0.25 0.41 0.58 0.98 1.42 1.49 1.38 1.14 1.06 1.24 1.45 1.40 1.38 1.48 1.57 1.83 2.08 2.46 2.85 3.24 3.54 3.61 3.48 3.45 3.47 3.56 3.35 3.05 2.84 2.74 2.61 2.54 2.53 2.35
0.08 0.07 0.06 0.05 0.06 0.06 0.07 0.09 0.15 0.24 0.41 0.72 0.57 0.71 1.15 1.38 1.27 1.04 1.04 1.17 1.32 1.46 1.46 1.53 1.75 1.91 2.03 2.31 2.63 2.86 3.09 3.14 3.10 3.01 3.02 3.11 3.12 3.05 2.77 2.55 2.52 2.51 2.41 2.24
0.17 0.17 0.12 0.09 0.08 0.07 0.08 0.18 0.51 0.83 1.13 0.98 0.62 0.73 1.11 1.08 0.91 0.81 0.87 1.11 1.35 1.58 1.55 1.65 1.82 1.92 1.99 2.12 2.27 2.38 2.49 2.55 2.50 2.49 2.46 2.46 2.54 2.61 2.43 2.31 2.36 2.37 2.26 2.12
0.25 0.24 0.17 0.15 0.12 0.11 0.11 0.22 0.58 0.76 0.90 0.87 0.82 1.04 1.11 0.88 0.74 0.74 0.80 0.97 1.24 1.41 1.43 1.54 1.63 1.54 1.54 1.61 1.72 1.84 1.92 1.96 1.93 1.99 2.07 2.09 2.25 2.23 2.15 2.24 2.19 2.21 2.16 2.10
0.14 0.15 0.15 0.15 0.16 0.15 0.20 0.26 0.27 0.45 0.55 0.90 1.09 1.22 1.09 0.80 0.91 0.89 0.94 1.01 1.06 1.12 1.15 1.14 1.15 1.19 1.30 1.36 1.39 1.46 1.60 1.65 1.58 1.61 1.75 1.83 1.87 1.92 1.95 2.05 2.02 1.92 1.90 1.77
0.08 0.11 0.13 0.11 0.12 0.15 0.21 0.34 0.46 0.68 0.88 1.04 1.13 1.40 1.53 1.35 1.26 1.14 1.21 1.42 1.24 0.98 0.97 0.98 0.94 0.96 1.01 1.04 1.18 1.36 1.49 1.61 1.60 1.53 1.55 1.49 1.56 1.63 1.79 1.86 1.79 1.78 1.79 1.71
0.08 0.11 0.14 0.15 0.15 0.20 0.33 0.41 0.51 0.65 0.75 0.98 1.26 1.43 1.22 1.32 1.26 1.22 1.24 1.27 1.09 0.78 0.68 0.73 0.73 0.74 0.79 0.89 1.03 1.19 1.47 1.61 1.51 1.35 1.35 1.41 1.40 1.47 1.58 1.63 1.58 1.61 1.66 1.71
0.10 0.12 0.16 0.19 0.19 0.19 0.28 0.41 0.52 0.69 0.77 0.85 1.07 1.25 0.85 0.95 0.91 0.91 0.99 0.88 0.73 0.61 0.52 0.63 0.65 0.60 0.65 0.73 0.83 0.99 1.20 1.35 1.31 1.25 1.27 1.38 1.48 1.46 1.40 1.38 1.39 1.40 1.42 1.41
0.13 0.17 0.27 0.46 0.44 0.29 0.26 0.29 0.36 0.45 0.58 0.67 0.95 1.18 0.79 0.71 0.77 0.76 0.76 0.75 0.59 0.65 0.62 0.61 0.64 0.57 0.55 0.59 0.72 0.87 0.95 1.07 1.18 1.18 1.21 1.33 1.34 1.29 1.31 1.41 1.44 1.38 1.35 1.34
0.14 0.15 0.23 0.49 0.56 0.44 0.34 0.33 0.34 0.38 0.52 0.55 0.63 0.90 0.87 0.80 0.78 0.79 0.72 0.60 0.51 0.55 0.65 0.62 0.58 0.54 0.50 0.50 0.56 0.66 0.75 0.86 0.95 1.04 1.18 1.35 1.41 1.43 1.47 1.49 1.49 1.42 1.33 1.36
0.13 0.14 0.16 0.22 0.30 0.32 0.31 0.30 0.33 0.35 0.39 0.50 0.55 0.68 0.80 0.74 0.77 0.84 0.73 0.60 0.60 0.53 0.54 0.53 0.50 0.47 0.45 0.45 0.47 0.55 0.69 0.80 0.90 1.05 1.21 1.35 1.41 1.44 1.44 1.39 1.42 1.42 1.31 1.28
0.18 0.19 0.21 0.28 0.32 0.34 0.34 0.34 0.30 0.28 0.25 0.29 0.43 0.62 0.62 0.60 0.64 0.72 0.70 0.68 0.67 0.66 0.50 0.42 0.45 0.43 0.41 0.39 0.41 0.44 0.59 0.76 0.87 1.02 1.15 1.20 1.28 1.35 1.31 1.26 1.26 1.25 1.26 1.28
0.24 0.27 0.32 0.38 0.42 0.49 0.53 0.42 0.40 0.39 0.34 0.37 0.58 0.71 0.57 0.57 0.59 0.60 0.57 0.58 0.60 0.60 0.60 0.54 0.51 0.48 0.42 0.40 0.44 0.47 0.52 0.66 0.86 0.99 1.04 1.11 1.23 1.31 1.28 1.18 1.20 1.23 1.24 1.25
0.29 0.35 0.38 0.40 0.57 0.79 0.58 0.33 0.30 0.31 0.34 0.34 0.43 0.49 0.47 0.50 0.50 0.55 0.58 0.53 0.51 0.42 0.45 0.55 0.59 0.58 0.58 0.55 0.57 0.59 0.60 0.67 0.81 0.99 1.09 1.13 1.24 1.28 1.29 1.27 1.21 1.20 1.18 1.18
0.26 0.39 0.46 0.50 0.61 0.64 0.51 0.36 0.36 0.41 0.43 0.31 0.35 0.41 0.41 0.48 0.53 0.61 0.49 0.39 0.48 0.42 0.45 0.48 0.53 0.60 0.74 0.80 0.76 0.78 0.80 0.77 0.81 0.96 1.08 1.20 1.33 1.35 1.33 1.33 1.29 1.27 1.25 1.21
0.28 0.37 0.50 0.51 0.72 0.80 0.62 0.41 0.44 0.55 0.81 0.52 0.45 0.50 0.51 0.48 0.72 0.78 0.48 0.35 0.55 0.49 0.47 0.47 0.47 0.55 0.70 0.76 0.71 0.74 0.81 0.88 0.91 1.00 1.10 1.20 1.32 1.43 1.39 1.42 1.44 1.40 1.36 1.31
0.55 0.58 0.58 0.57 0.76 0.84 0.57 0.44 0.52 0.93 1.11 0.64 0.55 0.55 0.60 0.63 0.63 0.57 0.44 0.42 0.53 0.48 0.46 0.43 0.47 0.62 0.68 0.67 0.70 0.80 0.83 0.91 0.97 1.07 1.15 1.27 1.39 1.44 1.44 1.50 1.55 1.52 1.47 1.49
0.79 0.77 0.72 0.78 1.01 1.06 0.61 0.55 0.79 0.89 0.65 0.60 0.57 0.53 0.57 0.57 0.50 0.40 0.38 0.38 0.42 0.47 0.48 0.56 0.66 0.75 0.75 0.77 0.89 0.98 1.02 1.00 1.04 1.16 1.22 1.35 1.49 1.35 1.34 1.56 1.64 1.64 1.64 1.62
0.84 0.87 0.89 0.96 1.05 0.88 0.72 0.75 0.83 0.69 0.65 0.58 0.52 0.51 0.48 0.51 0.47 0.42 0.40 0.36 0.38 0.45 0.48 0.60 0.73 0.80 0.81 0.88 1.04 1.25 1.25 1.20 1.18 1.26 1.36 1.39 1.42 1.53 1.61 1.66 1.72 1.71 1.66 1.64
0.85 0.75 0.92 1.05 1.02 0.91 0.83 0.79 0.77 0.68 0.62 0.51 0.44 0.46 0.47 0.51 0.55 0.49 0.46 0.45 0.42 0.45 0.48 0.54 0.69 0.77 0.89 1.00 1.15 1.39 1.43 1.40 1.42 1.48 1.54 1.52 1.52 1.56 1.69 1.86 1.85 1.76 1.65 1.67
0.94 0.89 1.03 1.19 1.14 1.00 0.87 0.74 0.68 0.60 0.54 0.49 0.44 0.45 0.48 0.54 0.58 0.54 0.57 0.55 0.48 0.50 0.52 0.58 0.74 0.89 0.96 1.01 1.10 1.27 1.44 1.59 1.65 1.65 1.64 1.64 1.65 1.71 1.76 1.76 1.71 1.68 1.62 1.55
0.84 0.98 1.22 1.34 1.08 0.95 0.89 0.75 0.72 0.61 0.55 0.53 0.51 0.48 0.51 0.51 0.50 0.51 0.57 0.61 0.55 0.60 0.69 0.67 0.73 0.87 0.95 1.03 1.14 1.28 1.49 1.76 1.95 1.90 1.77 1.75 1.76 1.80 1.78 1.77 1.57 1.38 1.31 1.26

GEFSCGP_prec_meanprecacc_222.txt.gz
Total_Precipitation_Accumulation
0.01 0.02 0.02 0.02 0.02 0.04 0.07 0.16 0.22 0.23 0.28 0.30 0.39 0.48 0.79 1.01 1.11 1.23 1.38 1.58 1.79 1.97 2.03 2.19 2.49 2.70 2.82 2.97 3.20 3.48 3.90 4.25 4.32 4.13 4.05 3.95 3.63 3.34 3.01 2.72 2.66 2.79 2.72 2.79
0.02 0.03 0.02 0.02 0.02 0.04 0.08 0.17 0.24 0.27 0.31 0.30 0.44 0.55 0.80 1.20 1.33 1.29 1.34 1.36 1.44 1.88 2.08 2.27 2.51 2.62 2.59 2.79 3.08 3.49 3.91 4.24 4.14 4.21 4.39 4.31 4.09 3.44 3.07 2.88 2.78 2.72 2.67 2.68
0.03 0.03 0.02 0.03 0.04 0.07 0.10 0.15 0.21 0.26 0.36 0.33 0.44 0.80 1.01 1.30 1.44 1.31 1.27 1.29 1.25 1.44 1.73 1.86 2.02 2.17 2.42 2.84 3.23 3.49 3.77 3.92 3.97 4.14 4.27 4.00 3.78 3.29 3.12 3.12 2.93 2.79 2.81 2.82
0.02 0.03 0.03 0.05 0.06 0.07 0.12 0.11 0.12 0.20 0.33 0.46 0.54 1.11 1.41 1.61 1.51 1.24 1.26 1.32 1.42 1.53 1.60 1.71 1.78 2.07 2.43 2.81 3.32 3.71 3.71 3.74 3.68 3.83 3.92 3.74 3.37 3.09 2.98 2.98 2.75 2.66 2.61 2.61
0.06 0.04 0.03 0.04 0.06 0.06 0.09 0.08 0.10 0.17 0.26 0.43 0.60 1.00 1.45 1.52 1.42 1.19 1.10 1.29 1.50 1.49 1.53 1.76 1.72 1.91 2.16 2.53 2.91 3.30 3.59 3.66 3.51 3.47 3.50 3.60 3.39 3.09 2.88 2.78 2.66 2.60 2.59 2.40
0.08 0.07 0.06 0.05 0.06 0.06 0.07 0.09 0.15 0.24 0.42 0.74 0.59 0.73 1.16 1.40 1.30 1.08 1.10 1.22 1.37 1.54 1.54 1.70 1.96 1.99 2.09 2.36 2.69 2.93 3.18 3.20 3.13 3.05 3.06 3.15 3.17 3.11 2.84 2.62 2.59 2.58 2.47 2.30
0.17 0.17 0.12 0.09 0.08 0.07 0.08 0.18 0.51 0.84 1.13 0.99 0.63 0.75 1.13 1.09 0.94 0.85 0.91 1.16 1.40 1.68 1.69 1.72 1.91 1.99 2.05 2.19 2.34 2.45 2.56 2.61 2.57 2.57 2.52 2.52 2.61 2.68 2.50 2.40 2.44 2.43 2.31 2.17
0.25 0.24 0.17 0.15 0.12 0.11 0.11 0.22 0.58 0.77 0.91 0.88 0.82 1.05 1.13 0.90 0.76 0.77 0.84 1.02 1.29 1.46 1.50 1.58 1.67 1.59 1.58 1.67 1.78 1.91 2.00 2.05 2.01 2.05 2.12 2.14 2.32 2.30 2.23 2.32 2.27 2.28 2.21 2.15
0.14 0.15 0.15 0.15 0.16 0.15 0.20 0.26 0.27 0.45 0.55 0.90 1.10 1.24 1.14 0.83 0.94 0.93 1.00 1.06 1.11 1.16 1.19 1.17 1.19 1.23 1.34 1.39 1.42 1.51 1.65 1.70 1.64 1.67 1.81 1.89 1.93 1.98 2.01 2.10 2.07 1.97 1.95 1.82
0.08 0.11 0.13 0.11 0.12 0.15 0.22 0.34 0.47 0.68 0.88 1.05 1.14 1.43 1.62 1.44 1.35 1.22 1.32 1.54 1.30 1.04 1.04 1.04 1.00 1.02 1.04 1.06 1.20 1.39 1.52 1.65 1.65 1.60 1.60 1.54 1.62 1.68 1.83 1.90 1.84 1.83 1.86 1.79
0.08 0.11 0.14 0.15 0.15 0.20 0.33 0.41 0.51 0.65 0.75 0.99 1.28 1.46 1.28 1.45 1.41 1.34 1.32 1.36 1.25 0.92 0.79 0.85 0.82 0.82 0.84 0.92 1.06 1.21 1.51 1.66 1.59 1.43 1.42 1.46 1.45 1.52 1.64 1.70 1.65 1.69 1.73 1.80
0.10 0.12 0.16 0.19 0.19 0.19 0.28 0.41 0.52 0.69 0.77 0.86 1.09 1.30 0.92 1.06 1.03 0.98 1.04 0.93 0.84 0.77 0.62 0.72 0.73 0.68 0.71 0.77 0.86 1.03 1.25 1.41 1.39 1.34 1.33 1.44 1.53 1.51 1.45 1.44 1.45 1.47 1.49 1.49
0.13 0.17 0.28 0.46 0.44 0.29 0.26 0.29 0.36 0.45 0.58 0.67 0.96 1.22 0.86 0.79 0.84 0.85 0.82 0.83 0.69 0.74 0.69 0.67 0.73 0.71 0.65 0.64 0.78 0.97 1.02 1.17 1.29 1.27 1.28 1.40 1.39 1.34 1.35 1.45 1.49 1.46 1.43 1.41
0.14 0.15 0.24 0.49 0.57 0.44 0.34 0.34 0.34 0.38 0.52 0.55 0.63 0.92 0.93 0.90 0.87 0.88 0.81 0.68 0.59 0.64 0.73 0.69 0.68 0.67 0.56 0.55 0.63 0.80 0.85 0.94 1.07 1.16 1.29 1.45 1.49 1.49 1.54 1.56 1.57 1.51 1.42 1.44
0.13 0.14 0.16 0.22 0.30 0.33 0.31 0.30 0.33 0.35 0.39 0.50 0.57 0.72 0.87 0.88 0.89 0.93 0.83 0.68 0.67 0.59 0.62 0.67 0.63 0.54 0.51 0.51 0.55 0.70 0.79 0.88 0.99 1.16 1.30 1.43 1.49 1.50 1.51 1.46 1.50 1.52 1.44 1.39
0.18 0.19 0.21 0.28 0.32 0.35 0.34 0.34 0.30 0.28 0.26 0.30 0.48 0.71 0.70 0.68 0.74 0.83 0.80 0.84 0.82 0.72 0.56 0.53 0.57 0.56 0.54 0.45 0.45 0.51 0.66 0.81 0.92 1.07 1.19 1.25 1.34 1.42 1.38 1.33 1.37 1.39 1.42 1.42
0.24 0.27 0.33 0.38 0.42 0.50 0.54 0.43 0.41 0.40 0.35 0.38 0.60 0.74 0.60 0.60 0.64 0.66 0.64 0.70 0.75 0.71 0.75 0.72 0.67 0.66 0.56 0.46 0.47 0.50 0.55 0.70 0.90 1.02 1.07 1.15 1.28 1.37 1.36 1.29 1.34 1.40 1.42 1.40
0.29 0.36 0.39 0.41 0.57 0.81 0.62 0.38 0.33 0.33 0.36 0.35 0.45 0.50 0.49 0.53 0.53 0.57 0.62 0.58 0.57 0.49 0.55 0.69 0.72 0.72 0.68 0.60 0.61 0.63 0.62 0.70 0.84 1.01 1.12 1.18 1.30 1.34 1.36 1.33 1.28 1.30 1.28 1.28
0.27 0.40 0.48 0.52 0.63 0.66 0.55 0.44 0.42 0.44 0.45 0.33 0.37 0.43 0.43 0.50 0.56 0.64 0.52 0.44 0.53 0.49 0.54 0.60 0.61 0.66 0.80 0.85 0.81 0.82 0.84 0.81 0.85 1.00 1.13 1.25 1.39 1.42 1.41 1.39 1.35 1.36 1.35 1.31
0.29 0.38 0.52 0.54 0.77 0.83 0.66 0.49 0.51 0.59 0.84 0.56 0.49 0.53 0.53 0.51 0.75 0.83 0.52 0.45 0.65 0.56 0.53 0.58 0.59 0.61 0.75 0.81 0.78 0.80 0.86 0.94 0.97 1.05 1.15 1.28 1.39 1.50 1.46 1.49 1.52 1.48 1.43 1.38
0.57 0.60 0.60 0.60 0.80 0.89 0.61 0.48 0.56 0.98 1.14 0.67 0.59 0.61 0.66 0.67 0.68 0.64 0.50 0.53 0.61 0.55 0.52 0.50 0.54 0.68 0.74 0.73 0.79 0.89 0.91 0.98 1.05 1.15 1.23 1.35 1.45 1.49 1.49 1.55 1.60 1.57 1.52 1.55
0.81 0.81 0.76 0.81 1.04 1.10 0.64 0.57 0.83 0.95 0.69 0.62 0.60 0.56 0.60 0.61 0.55 0.46 0.44 0.48 0.50 0.54 0.56 0.63 0.72 0.81 0.81 0.85 0.98 1.10 1.15 1.10 1.17 1.28 1.31 1.42 1.55 1.40 1.39 1.61 1.68 1.68 1.68 1.67
0.88 0.90 0.94 1.00 1.09 0.93 0.76 0.79 0.87 0.75 0.73 0.64 0.55 0.54 0.52 0.57 0.56 0.49 0.47 0.44 0.45 0.51 0.54 0.65 0.78 0.84 0.86 0.91 1.07 1.29 1.29 1.25 1.26 1.38 1.43 1.46 1.52 1.63 1.71 1.74 1.78 1.76 1.71 1.69
0.91 0.81 0.97 1.10 1.08 0.97 0.90 0.87 0.84 0.76 0.69 0.59 0.52 0.53 0.52 0.60 0.65 0.58 0.54 0.53 0.50 0.51 0.53 0.58 0.73 0.79 0.91 1.01 1.16 1.41 1.45 1.43 1.46 1.54 1.60 1.61 1.62 1.65 1.78 1.94 1.91 1.81 1.69 1.71
0.99 0.97 1.12 1.28 1.22 1.07 0.94 0.80 0.72 0.64 0.58 0.53 0.51 0.54 0.57 0.61 0.66 0.62 0.65 0.64 0.58 0.56 0.56 0.61 0.77 0.91 0.97 1.02 1.11 1.29 1.46 1.61 1.69 1.71 1.70 1.71 1.76 1.78 1.83 1.82 1.75 1.71 1.65 1.57
0.91 1.06 1.33 1.46 1.16 1.02 0.96 0.79 0.75 0.65 0.58 0.57 0.56 0.55 0.60 0.59 0.61 0.60 0.63 0.68 0.63 0.66 0.73 0.70 0.74 0.89 0.97 1.04 1.15 1.29 1.51 1.79 2.00 1.96 1.84 1.82 1.84 1.86 1.84 1.83 1.61 1.41 1.33 1.29

GEFSCGP_prec_meanprecacc_228.txt.gz
Total_Precipitation_Accumulation
0.01 0.02 0.02 0.02 0.03 0.04 0.07 0.16 0.22 0.23 0.29 0.31 0.40 0.49 0.80 1.02 1.11 1.24 1.40 1.59 1.80 1.99 2.05 2.21 2.51 2.73 2.87 3.02 3.24 3.51 3.92 4.27 4.36 4.18 4.10 3.99 3.67 3.36 3.03 2.76 2.72 2.85 2.77 2.83
0.02 0.03 0.02 0.02 0.02 0.05 0.08 0.17 0.24 0.27 0.31 0.31 0.45 0.56 0.81 1.21 1.34 1.30 1.35 1.38 1.46 1.91 2.11 2.30 2.54 2.68 2.68 2.86 3.15 3.54 3.96 4.28 4.20 4.29 4.47 4.38 4.15 3.48 3.10 2.92 2.84 2.77 2.72 2.72
0.03 0.03 0.02 0.03 0.04 0.07 0.10 0.15 0.21 0.27 0.37 0.34 0.45 0.82 1.02 1.32 1.46 1.33 1.29 1.31 1.27 1.47 1.77 1.91 2.07 2.26 2.50 2.91 3.32 3.59 3.88 4.03 4.06 4.23 4.35 4.05 3.83 3.33 3.16 3.15 2.97 2.84 2.85 2.86
0.03 0.03 0.03 0.05 0.06 0.08 0.12 0.11 0.13 0.20 0.34 0.48 0.56 1.12 1.42 1.62 1.52 1.26 1.28 1.34 1.44 1.56 1.64 1.75 1.81 2.11 2.47 2.86 3.42 3.82 3.84 3.91 3.78 3.89 3.97 3.78 3.41 3.12 3.01 3.02 2.79 2.71 2.65 2.65
0.06 0.04 0.04 0.05 0.06 0.06 0.09 0.08 0.10 0.17 0.27 0.44 0.61 1.00 1.46 1.53 1.43 1.20 1.12 1.31 1.52 1.51 1.56 1.80 1.76 1.94 2.19 2.59 2.99 3.39 3.72 3.79 3.60 3.52 3.54 3.64 3.43 3.13 2.92 2.82 2.71 2.66 2.64 2.46
0.09 0.07 0.06 0.05 0.06 0.06 0.07 0.09 0.15 0.26 0.43 0.74 0.60 0.73 1.16 1.40 1.31 1.09 1.12 1.24 1.39 1.56 1.57 1.73 1.99 2.02 2.12 2.40 2.75 3.02 3.26 3.25 3.17 3.10 3.11 3.19 3.22 3.16 2.89 2.67 2.67 2.65 2.53 2.36
0.17 0.17 0.12 0.09 0.08 0.07 0.09 0.18 0.51 0.84 1.14 0.99 0.63 0.75 1.13 1.10 0.94 0.85 0.92 1.17 1.42 1.71 1.71 1.75 1.93 2.00 2.07 2.21 2.37 2.51 2.61 2.65 2.61 2.63 2.58 2.57 2.66 2.72 2.55 2.46 2.49 2.47 2.36 2.25
0.25 0.24 0.17 0.15 0.12 0.11 0.11 0.22 0.58 0.77 0.91 0.88 0.82 1.05 1.14 0.90 0.77 0.77 0.85 1.03 1.30 1.47 1.51 1.60 1.69 1.60 1.61 1.71 1.83 1.98 2.09 2.10 2.04 2.10 2.16 2.19 2.37 2.35 2.30 2.39 2.32 2.32 2.25 2.21
0.14 0.16 0.15 0.15 0.16 0.15 0.20 0.26 0.27 0.45 0.55 0.91 1.10 1.24 1.15 0.84 0.95 0.93 1.01 1.07 1.12 1.17 1.20 1.19 1.22 1.27 1.39 1.44 1.48 1.57 1.74 1.76 1.67 1.71 1.86 1.93 1.99 2.06 2.11 2.17 2.11 2.00 1.99 1.87
0.08 0.11 0.13 0.11 0.12 0.15 0.22 0.34 0.47 0.68 0.88 1.05 1.14 1.43 1.62 1.44 1.36 1.23 1.33 1.55 1.30 1.05 1.06 1.08 1.05 1.09 1.12 1.14 1.25 1.42 1.56 1.70 1.70 1.64 1.66 1.60 1.68 1.76 1.91 1.95 1.88 1.88 1.92 1.86
0.08 0.11 0.14 0.15 0.15 0.20 0.33 0.41 0.51 0.65 0.75 0.99 1.28 1.46 1.28 1.45 1.42 1.35 1.32 1.37 1.25 0.93 0.81 0.89 0.87 0.91 0.96 1.01 1.10 1.25 1.54 1.70 1.64 1.48 1.48 1.52 1.50 1.58 1.71 1.75 1.70 1.75 1.81 1.90
0.10 0.12 0.16 0.20 0.19 0.19 0.28 0.42 0.52 0.69 0.77 0.86 1.09 1.30 0.92 1.06 1.04 0.99 1.04 0.94 0.85 0.78 0.63 0.75 0.80 0.77 0.80 0.85 0.93 1.08 1.29 1.44 1.44 1.40 1.38 1.48 1.57 1.57 1.52 1.50 1.50 1.52 1.55 1.58
0.13 0.17 0.28 0.47 0.45 0.29 0.26 0.29 0.36 0.45 0.58 0.67 0.96 1.22 0.86 0.79 0.85 0.85 0.83 0.84 0.70 0.75 0.70 0.69 0.78 0.78 0.73 0.72 0.83 1.02 1.06 1.23 1.38 1.37 1.33 1.45 1.46 1.42 1.45 1.55 1.56 1.50 1.50 1.50
0.14 0.15 0.24 0.49 0.57 0.44 0.34 0.34 0.35 0.38 0.52 0.55 0.63 0.92 0.93 0.90 0.89 0.92 0.83 0.69 0.61 0.67 0.75 0.71 0.70 0.70 0.61 0.59 0.67 0.84 0.91 1.02 1.16 1.28 1.38 1.52 1.54 1.54 1.60 1.62 1.63 1.58 1.49 1.53
0.13 0.14 0.16 0.22 0.30 0.33 0.31 0.30 0.33 0.35 0.39 0.50 0.57 0.72 0.87 0.88 0.90 0.96 0.85 0.71 0.70 0.61 0.64 0.68 0.64 0.55 0.53 0.54 0.58 0.73 0.84 0.92 1.03 1.23 1.40 1.49 1.53 1.54 1.56 1.53 1.59 1.60 1.50 1.47
0.18 0.19 0.21 0.28 0.32 0.35 0.34 0.34 0.30 0.28 0.26 0.30 0.48 0.71 0.70 0.69 0.75 0.85 0.83 0.87 0.85 0.74 0.58 0.55 0.58 0.58 0.58 0.50 0.49 0.55 0.69 0.83 0.94 1.11 1.23 1.28 1.39 1.49 1.45 1.42 1.46 1.47 1.49 1.53
0.24 0.28 0.33 0.38 0.42 0.50 0.54 0.43 0.41 0.40 0.35 0.38 0.60 0.74 0.60 0.60 0.65 0.68 0.67 0.73 0.77 0.75 0.80 0.77 0.69 0.70 0.61 0.50 0.51 0.53 0.56 0.72 0.91 1.04 1.09 1.18 1.32 1.42 1.41 1.35 1.43 1.50 1.51 1.49
0.29 0.36 0.39 0.41 0.57 0.81 0.62 0.39 0.33 0.33 0.36 0.35 0.45 0.51 0.50 0.53 0.53 0.58 0.63 0.60 0.59 0.52 0.58 0.73 0.78 0.80 0.76 0.66 0.65 0.66 0.64 0.71 0.86 1.03 1.14 1.20 1.34 1.38 1.40 1.39 1.36 1.40 1.40 1.39
0.27 0.41 0.48 0.52 0.63 0.66 0.56 0.45 0.43 0.45 0.46 0.33 0.38 0.44 0.44 0.51 0.57 0.65 0.54 0.45 0.55 0.51 0.58 0.65 0.69 0.78 0.93 0.94 0.87 0.86 0.87 0.84 0.88 1.03 1.16 1.29 1.44 1.47 1.46 1.47 1.44 1.45 1.45 1.39
0.30 0.39 0.52 0.54 0.77 0.84 0.67 0.50 0.52 0.59 0.84 0.56 0.50 0.54 0.55 0.53 0.77 0.84 0.53 0.46 0.67 0.59 0.57 0.62 0.65 0.67 0.81 0.87 0.83 0.85 0.92 0.99 1.01 1.09 1.20 1.34 1.44 1.55 1.52 1.57 1.60 1.56 1.49 1.42
0.58 0.60 0.61 0.60 0.80 0.89 0.62 0.49 0.57 1.00 1.15 0.68 0.60 0.63 0.68 0.69 0.70 0.65 0.52 0.55 0.63 0.57 0.55 0.53 0.58 0.76 0.80 0.79 0.83 0.94 0.97 1.04 1.09 1.21 1.28 1.42 1.51 1.55 1.55 1.62 1.66 1.62 1.56 1.58
0.82 0.81 0.76 0.81 1.04 1.10 0.64 0.59 0.85 0.97 0.71 0.64 0.61 0.57 0.62 0.63 0.58 0.48 0.46 0.49 0.51 0.56 0.57 0.65 0.76 0.85 0.86 0.89 1.01 1.14 1.20 1.15 1.23 1.33 1.36 1.47 1.58 1.44 1.44 1.67 1.74 1.72 1.70 1.69
0.88 0.91 0.94 1.01 1.09 0.93 0.78 0.81 0.90 0.78 0.76 0.66 0.57 0.56 0.53 0.58 0.57 0.51 0.49 0.45 0.47 0.53 0.57 0.67 0.81 0.88 0.91 0.96 1.11 1.33 1.33 1.27 1.29 1.40 1.46 1.50 1.56 1.65 1.74 1.79 1.83 1.79 1.73 1.71
0.92 0.82 0.98 1.11 1.09 0.98 0.91 0.89 0.87 0.79 0.73 0.63 0.55 0.57 0.56 0.62 0.67 0.60 0.56 0.55 0.52 0.53 0.56 0.62 0.78 0.85 0.98 1.08 1.22 1.47 1.50 1.46 1.47 1.55 1.63 1.65 1.65 1.68 1.82 1.98 1.97 1.87 1.73 1.74
1.01 0.98 1.13 1.29 1.23 1.09 0.96 0.82 0.74 0.67 0.62 0.58 0.55 0.57 0.61 0.65 0.70 0.66 0.69 0.68 0.62 0.61 0.61 0.68 0.85 1.00 1.06 1.10 1.17 1.34 1.51 1.64 1.71 1.73 1.72 1.76 1.79 1.82 1.87 1.86 1.81 1.80 1.73 1.64
0.93 1.07 1.34 1.48 1.19 1.05 0.99 0.81 0.77 0.68 0.61 0.60 0.60 0.59 0.66 0.64 0.65 0.64 0.67 0.73 0.70 0.74 0.82 0.82 0.86 1.00 1.07 1.12 1.21 1.33 1.55 1.82 2.02 1.98 1.88 1.88 1.89 1.90 1.87 1.88 1.68 1.49 1.43 1.37